NOAA 16 DEB, 41716

Orbit data source: Space-Track

NOAA 16 DEB, 41716 is space debris in SSO originally from a launch on Thu, 21 Sep 2000 UTC launched from the Air Force Western Test Range (AFWTR). Debris objects in space refer to the collection of defunct objects orbiting the Earth. Examples of debris include non-operational satellites, rocket bodies, and fragments generated from explosions, collisions, or faulty payload assembly.

Loading next visibility...
Identifier
41716, 2000-055PW
Orbit
SSO
Country
Flag of USUS
Related business
Manufacturer
Unknown
Mission
Spacecraft
Bus & Motor
Unknown
Mass
Unknown
Launch date (UTC)
Icon of a cake. It is the launch day of the satellite!2000-09-21 (26 years ago)
Launch vehicle
Unknown
Launch site
Air Force Western Test Range (AFWTR)
Object type
Payload
Rocket body
Debris
Shape & HBR
Unknown shape, 0.1 m
Radar Cross Section
Medium (>0.1 m² and <1 m²)

Expand to show TLE details & history
Last TLE update: 3 days ago

TLE from 3 days ago
0 NOAA 16 DEB
1 41716U 00055PW  26261.99171354  .00001711  00000-0  69560-3 0  9994
2 41716  98.6273 328.6742 0003734 231.8331 128.2515 14.28861711539747
Epoch: 2026-09-18T23:48Z
TLE epoch observation values (Epoch: 2026-09-18T23:48:04.049Z)
Latitude
-0°
Longitude
-26.24933°
Altitude
800.127 km
Speed
7.453 km/s
True Right ascension
21h 54m 41s
True Declination
0° 00' 00"
Sunlit
Object was in full shadow at epoch
Visualization orbit readout
Latitude
Unknown
Longitude
Unknown
Altitude
Unknown
Speed
Unknown
Apparent Right ascension
Unknown
Apparent Declination
Unknown
Sunlit
N/A
Visualization observer readout
Local Sidereal Time
08:59:15
Azimuth
Unknown
Elevation
Unknown
Doppler factor
Unknown
Orbital elements
Apogee altitude
795.359 km
Perigee altitude
790.003 km
Semi-major axis
7,170.818 km
Eccentricity
0.00037
Inclination
98.6273°
RAAN
328.6742°
Arg. of periapsis
231.8331°
True anomaly
128.28509°
Mean anomaly
128.2515°
Eccentric anomaly
128.2683°
Mean motion
3.57429 °/min
Orbital period
100.72 mins
BSTAR
0.0006956
Loading maneuver chart data...
Computing Atmospheric mass density...

Documentation

Showing up to 5 results
|